Home   Weather   São Luis   Past weeks

Flag for Brazil Past Weather in São Luis, Maranhão, Brazil — Yesterday and Last 2 Weeks

Now
77 °F

Passing clouds.


Feels Like: 78 °F
Forecast: 73 / 86 °F
Wind: 3 mph from East

Location: Sao Luiz Aeroporto

Current Time: Apr 30, 2017 at 9:48:42 pm

Latest Report: Apr 30, 2017 at 9:00 pm


Visibility: N/A

Pressure: 29.92 "Hg

Humidity: 94%

Dew Point: 75 °F

Location of São LuisLocation

Past Weather in São Luis — Graph

°F

São Luis Temperature Yesterday

Maximum temperature yesterday: 81 °F (at 1:00 pm)
Minimum temperature yesterday: 73 °F (at 5:00 am)
Average temperature yesterday: 78 °F

High & Low Weather Summary for the Past Weeks

 TemperatureHumidityPressure
High90 °F (Apr 16, 1:00 pm)100% (Apr 20, 7:00 am)29.98 "Hg (Apr 20, 7:00 am)
Low73 °F (Apr 29, 5:00 am)59% (Apr 16, 1:00 pm)29.74 "Hg (Apr 16, 4:00 pm)
Average81 °F85%29.86 "Hg
* Reported Apr 15 8:00 pm — Apr 30 8:00 pm, São Luis, Weather by CustomWeather, © 2017

Note: Actual official high and low records may vary slightly from our data, if they occured in-between our weather recording intervals... More about our weather records

Advertising

São Luis Weather History for the Previous 24 Hours

Scroll right to see more
 ConditionsComfort  
Time TempWeatherWind HumidityBarometerVisibility
8:00 pm
Sun, Apr 30
77 °FPassing clouds.No wind94%29.89 "HgN/A
7:00 pm79 °FPassing clouds.6 mph89%29.89 "HgN/A
6:00 pm79 °FPassing clouds.3 mph89%29.86 "HgN/A
5:00 pm79 °FPartly sunny.2 mph89%29.86 "HgN/A
4:00 pm77 °FPartly sunny.8 mph94%29.86 "HgN/A
3:00 pm79 °FPartly sunny.7 mph89%29.89 "HgN/A
2:00 pm79 °FPartly sunny.10 mph89%29.86 "HgN/A
1:00 pm84 °FPartly sunny.13 mph74%29.89 "HgN/A
12:00 pm88 °FPartly sunny.12 mph66%29.92 "HgN/A
11:00 am86 °FPartly sunny.13 mph70%29.95 "HgN/A
10:00 am84 °FScattered clouds.10 mph74%29.95 "HgN/A
9:00 am82 °FScattered clouds.8 mph79%29.92 "HgN/A
8:00 am79 °FScattered clouds.3 mph89%29.92 "HgN/A
7:00 am75 °FPartly sunny.2 mph94%29.89 "HgN/A
6:00 am73 °FPartly sunny.2 mph100%29.89 "HgN/A
5:00 am73 °FFog.2 mph100%29.86 "Hg1 mi
4:00 am75 °FPassing clouds.No wind94%29.89 "HgN/A
3:00 am75 °FPassing clouds.2 mph94%29.86 "HgN/A
2:00 am75 °FPassing clouds.No wind94%29.89 "HgN/A
1:00 am75 °FPassing clouds.2 mph89%29.92 "HgN/A
12:00 am77 °FWarm.5 mph89%29.92 "Hg5 mi
11:00 pm
Sat, Apr 29
77 °FPassing clouds.14 mph89%29.95 "HgN/A
10:00 pm81 °FPassing clouds.9 mph84%29.95 "HgN/A
9:00 pm79 °FPassing clouds.13 mph89%29.92 "HgN/A
Weather by CustomWeather, © 2017

See weather overviewHow to use our weather pages